Time,TemperatureF,DewpointF,PressureIn,WindDirection,WindDirectionDegrees,WindSpeedMPH,WindSpeedGustMPH,Humidity,HourlyPrecipIn,Conditions,Clouds,dailyrainin,SoftwareType,DateUTC
2013-06-08 00:01:00,68.5,67.9,29.76,South,185,0.0,0.0,98,0.00,,---,0.00,VWS V14.01,2013-06-08 04:01:00,
2013-06-08 00:02:00,68.5,67.9,29.76,South,185,0.0,0.0,98,0.00,,---,0.00,VWS V14.01,2013-06-08 04:02:00,
2013-06-08 00:03:00,68.5,67.9,29.76,South,185,0.0,0.0,98,0.00,,---,0.00,VWS V14.01,2013-06-08 04:03:00,
2013-06-08 00:08:00,68.5,67.9,29.76,South,185,0.0,0.0,98,0.00,,---,0.00,VWS V14.01,2013-06-08 04:08:00,
2013-06-08 00:13:00,68.4,67.8,29.76,South,185,0.0,0.0,98,0.00,,---,0.00,VWS V14.01,2013-06-08 04:13:00,
2013-06-08 00:18:00,68.4,67.8,29.75,South,185,0.0,1.0,98,0.00,,---,0.00,VWS V14.01,2013-06-08 04:18:00,
2013-06-08 00:23:00,68.3,67.7,29.75,South,185,0.0,0.0,98,0.00,,---,0.00,VWS V14.01,2013-06-08 04:23:00,
2013-06-08 00:28:00,68.3,67.7,29.75,South,185,0.0,0.0,98,0.00,,---,0.00,VWS V14.01,2013-06-08 04:28:00,
2013-06-08 00:33:00,68.3,67.7,29.75,South,185,0.0,1.0,98,0.00,,---,0.00,VWS V14.01,2013-06-08 04:33:00,
2013-06-08 00:38:00,68.4,67.8,29.75,South,185,0.0,1.0,98,0.00,,---,0.00,VWS V14.01,2013-06-08 04:38:00,
2013-06-08 00:43:00,68.4,67.8,29.75,South,185,0.0,0.0,98,0.00,,---,0.00,VWS V14.01,2013-06-08 04:43:00,
2013-06-08 00:48:00,68.4,67.8,29.75,South,185,0.0,0.0,98,0.00,,---,0.00,VWS V14.01,2013-06-08 04:48:00,
2013-06-08 00:53:00,68.4,67.8,29.75,South,185,0.0,1.0,98,0.00,,---,0.00,VWS V14.01,2013-06-08 04:53:00,
2013-06-08 00:59:00,68.4,67.8,29.75,South,185,0.0,2.0,98,0.00,,---,0.00,VWS V14.01,2013-06-08 04:59:00,
2013-06-08 01:04:00,68.4,67.8,29.76,South,185,0.0,1.0,98,0.00,,---,0.00,VWS V14.01,2013-06-08 05:04:00,
2013-06-08 01:09:00,68.4,67.8,29.76,South,185,0.0,1.0,98,0.00,,---,0.00,VWS V14.01,2013-06-08 05:09:00,
2013-06-08 01:14:00,68.3,67.7,29.76,South,185,0.0,0.0,98,0.00,,---,0.00,VWS V14.01,2013-06-08 05:14:00,
2013-06-08 01:19:00,68.2,67.6,29.75,South,185,0.0,1.0,98,0.00,,---,0.00,VWS V14.01,2013-06-08 05:19:00,
2013-06-08 01:24:00,68.1,67.5,29.75,South,185,0.0,0.0,98,0.00,,---,0.00,VWS V14.01,2013-06-08 05:24:00,
2013-06-08 01:29:00,68.1,67.5,29.75,South,185,0.0,0.0,98,0.00,,---,0.00,VWS V14.01,2013-06-08 05:29:00,
2013-06-08 01:34:00,68.0,67.4,29.75,South,185,0.0,0.0,98,0.00,,---,0.00,VWS V14.01,2013-06-08 05:34:00,
2013-06-08 01:39:00,68.0,67.4,29.75,South,185,0.0,1.0,98,0.00,,---,0.00,VWS V14.01,2013-06-08 05:39:00,
2013-06-08 01:44:00,67.9,67.3,29.76,South,185,0.0,1.0,98,0.00,,---,0.00,VWS V14.01,2013-06-08 05:44:00,
2013-06-08 01:49:00,67.9,67.3,29.76,South,185,0.0,3.0,98,0.00,,---,0.00,VWS V14.01,2013-06-08 05:49:00,
2013-06-08 01:55:00,67.9,67.3,29.76,South,185,0.0,1.0,98,0.00,,---,0.00,VWS V14.01,2013-06-08 05:55:00,
2013-06-08 02:00:00,67.9,67.3,29.77,South,185,0.0,1.0,98,0.00,,---,0.00,VWS V14.01,2013-06-08 06:00:00,
2013-06-08 02:05:00,67.9,67.3,29.77,South,185,0.0,0.0,98,0.01,,---,0.01,VWS V14.01,2013-06-08 06:05:00,
2013-06-08 02:10:00,67.9,67.3,29.77,South,185,0.0,0.0,98,0.01,,---,0.01,VWS V14.01,2013-06-08 06:10:00,
2013-06-08 02:15:00,67.8,67.2,29.77,South,185,0.0,0.0,98,0.01,,---,0.01,VWS V14.01,2013-06-08 06:15:00,
2013-06-08 02:20:00,67.7,67.1,29.77,South,185,0.0,0.0,98,0.01,,---,0.01,VWS V14.01,2013-06-08 06:20:00,
2013-06-08 02:25:00,67.7,67.1,29.77,South,185,0.0,0.0,98,0.01,,---,0.01,VWS V14.01,2013-06-08 06:25:00,
2013-06-08 02:30:00,67.6,67.0,29.77,South,185,0.0,0.0,98,0.01,,---,0.01,VWS V14.01,2013-06-08 06:30:00,
2013-06-08 02:35:00,67.6,67.0,29.77,South,185,0.0,0.0,98,0.01,,---,0.01,VWS V14.01,2013-06-08 06:35:00,
2013-06-08 02:40:00,67.7,67.1,29.77,South,185,0.0,0.0,98,0.01,,---,0.01,VWS V14.01,2013-06-08 06:40:00,
2013-06-08 02:45:00,67.7,67.1,29.77,South,185,0.0,0.0,98,0.01,,---,0.01,VWS V14.01,2013-06-08 06:45:00,
2013-06-08 02:50:00,67.8,67.2,29.77,South,185,0.0,0.0,98,0.01,,---,0.01,VWS V14.01,2013-06-08 06:50:00,
2013-06-08 02:55:00,67.7,67.1,29.77,South,185,0.0,0.0,98,0.01,,---,0.01,VWS V14.01,2013-06-08 06:55:00,
2013-06-08 03:01:00,67.7,67.1,29.77,South,185,0.0,0.0,98,0.01,,---,0.01,VWS V14.01,2013-06-08 07:01:00,
2013-06-08 03:05:00,67.7,67.1,29.77,South,185,0.0,0.0,98,0.01,,---,0.01,VWS V14.01,2013-06-08 07:05:00,
2013-06-08 03:11:00,67.7,67.1,29.77,South,185,0.0,0.0,98,0.00,,---,0.01,VWS V14.01,2013-06-08 07:11:00,
2013-06-08 03:16:00,67.7,67.1,29.77,South,185,0.0,0.0,98,0.00,,---,0.01,VWS V14.01,2013-06-08 07:16:00,
2013-06-08 03:21:00,67.7,67.1,29.77,South,185,0.0,0.0,98,0.00,,---,0.01,VWS V14.01,2013-06-08 07:21:00,
2013-06-08 03:26:00,67.7,67.1,29.77,South,185,0.0,0.0,98,0.00,,---,0.01,VWS V14.01,2013-06-08 07:26:00,
2013-06-08 03:32:00,67.8,67.2,29.77,South,185,0.0,0.0,98,0.00,,---,0.01,VWS V14.01,2013-06-08 07:32:00,
2013-06-08 03:37:00,67.8,67.2,29.77,South,185,0.0,0.0,98,0.00,,---,0.01,VWS V14.01,2013-06-08 07:37:00,
2013-06-08 03:42:00,67.8,67.2,29.77,South,185,0.0,1.0,98,0.00,,---,0.01,VWS V14.01,2013-06-08 07:42:00,
2013-06-08 03:47:00,67.7,67.1,29.78,South,185,0.0,1.0,98,0.00,,---,0.01,VWS V14.01,2013-06-08 07:47:00,
2013-06-08 03:52:00,67.6,67.0,29.78,South,185,0.0,0.0,98,0.00,,---,0.01,VWS V14.01,2013-06-08 07:52:00,
2013-06-08 03:57:00,67.6,67.0,29.78,South,185,0.0,0.0,98,0.00,,---,0.01,VWS V14.01,2013-06-08 07:57:00,
2013-06-08 04:02:00,67.6,67.0,29.78,South,185,0.0,0.0,98,0.00,,---,0.01,VWS V14.01,2013-06-08 08:02:00,
2013-06-08 04:07:00,67.6,67.0,29.78,South,185,0.0,1.0,98,0.00,,---,0.01,VWS V14.01,2013-06-08 08:07:00,
2013-06-08 04:12:00,67.6,67.0,29.78,South,185,0.0,0.0,98,0.00,,---,0.01,VWS V14.01,2013-06-08 08:12:00,
2013-06-08 04:17:00,67.5,66.9,29.78,South,185,0.0,0.0,98,0.00,,---,0.01,VWS V14.01,2013-06-08 08:17:00,
2013-06-08 04:22:00,67.5,66.9,29.78,South,185,0.0,0.0,98,0.00,,---,0.01,VWS V14.01,2013-06-08 08:22:00,
2013-06-08 04:27:00,67.5,66.9,29.78,South,185,0.0,0.0,98,0.00,,---,0.01,VWS V14.01,2013-06-08 08:27:00,
2013-06-08 04:32:00,67.4,66.8,29.78,South,185,0.0,1.0,98,0.00,,---,0.01,VWS V14.01,2013-06-08 08:32:00,
2013-06-08 04:38:00,67.4,66.8,29.78,South,185,0.0,1.0,98,0.00,,---,0.01,VWS V14.01,2013-06-08 08:38:00,
2013-06-08 04:43:00,67.4,66.8,29.78,South,185,0.0,0.0,98,0.00,,---,0.01,VWS V14.01,2013-06-08 08:43:00,
2013-06-08 04:48:00,67.4,66.8,29.78,South,185,0.0,0.0,98,0.00,,---,0.01,VWS V14.01,2013-06-08 08:48:00,
2013-06-08 04:53:00,67.4,66.8,29.78,South,185,0.0,2.0,98,0.00,,---,0.01,VWS V14.01,2013-06-08 08:53:00,
2013-06-08 04:58:00,67.4,66.8,29.78,South,185,3.0,3.0,98,0.00,,---,0.01,VWS V14.01,2013-06-08 08:58:00,
2013-06-08 05:03:00,67.4,66.8,29.80,South,185,1.0,3.0,98,0.00,,---,0.01,VWS V14.01,2013-06-08 09:03:00,
2013-06-08 05:08:00,67.3,66.7,29.80,South,185,0.0,3.0,98,0.00,,---,0.01,VWS V14.01,2013-06-08 09:08:00,
2013-06-08 05:13:00,67.3,66.7,29.80,South,185,0.0,0.0,98,0.00,,---,0.01,VWS V14.01,2013-06-08 09:13:00,
2013-06-08 05:18:00,67.2,66.6,29.79,South,185,0.0,2.0,98,0.00,,---,0.01,VWS V14.01,2013-06-08 09:18:00,
2013-06-08 05:23:00,67.2,66.6,29.79,South,185,0.0,0.0,98,0.00,,---,0.01,VWS V14.01,2013-06-08 09:23:00,
2013-06-08 05:28:00,67.2,66.6,29.79,South,185,0.0,0.0,98,0.00,,---,0.01,VWS V14.01,2013-06-08 09:28:00,
2013-06-08 05:33:00,67.2,66.6,29.80,South,185,0.0,1.0,98,0.00,,---,0.01,VWS V14.01,2013-06-08 09:33:00,
2013-06-08 05:38:00,67.2,66.6,29.80,South,185,0.0,1.0,98,0.00,,---,0.01,VWS V14.01,2013-06-08 09:38:00,
2013-06-08 05:44:00,67.1,66.5,29.80,South,185,0.0,1.0,98,0.00,,---,0.01,VWS V14.01,2013-06-08 09:44:00,
2013-06-08 05:49:00,66.8,66.2,29.80,South,185,3.0,3.0,98,0.00,,---,0.01,VWS V14.01,2013-06-08 09:49:00,
2013-06-08 05:54:00,66.0,65.4,29.80,South,185,0.0,1.0,98,0.00,,---,0.01,VWS V14.01,2013-06-08 09:54:00,
2013-06-08 05:59:00,65.6,65.0,29.80,South,185,0.0,1.0,98,0.00,,---,0.01,VWS V14.01,2013-06-08 09:59:00,
2013-06-08 06:04:00,65.4,64.8,29.80,South,185,1.0,1.0,98,0.00,,---,0.01,VWS V14.01,2013-06-08 10:04:00,
2013-06-08 06:09:00,65.1,64.5,29.80,South,185,0.0,3.0,98,0.00,,---,0.01,VWS V14.01,2013-06-08 10:09:00,
2013-06-08 06:14:00,64.9,64.3,29.80,South,185,0.0,2.0,98,0.00,,---,0.01,VWS V14.01,2013-06-08 10:14:00,
2013-06-08 06:19:00,64.8,64.2,29.80,South,185,0.0,2.0,98,0.00,,---,0.01,VWS V14.01,2013-06-08 10:19:00,
2013-06-08 06:24:00,64.8,64.2,29.80,South,185,1.0,1.0,98,0.00,,---,0.01,VWS V14.01,2013-06-08 10:24:00,
2013-06-08 06:29:00,64.7,64.1,29.82,WSW,244,0.0,4.0,98,0.00,,---,0.01,VWS V14.01,2013-06-08 10:29:00,
2013-06-08 06:34:00,64.4,63.8,29.82,NNW,338,1.0,4.0,98,0.03,,---,0.04,VWS V14.01,2013-06-08 10:34:00,
2013-06-08 06:39:00,63.8,63.2,29.82,WNW,294,3.0,5.0,98,0.12,,---,0.13,VWS V14.01,2013-06-08 10:39:00,
2013-06-08 06:45:00,63.3,62.4,29.85,West,277,1.0,6.0,97,0.23,,---,0.24,VWS V14.01,2013-06-08 10:45:00,
2013-06-08 06:50:00,62.8,61.9,29.85,West,279,0.0,6.0,97,0.30,,---,0.31,VWS V14.01,2013-06-08 10:50:00,
2013-06-08 06:55:00,62.6,62.0,29.85,North,355,2.0,4.0,98,0.33,,---,0.34,VWS V14.01,2013-06-08 10:55:00,
2013-06-08 07:00:00,62.5,61.6,29.85,NNE,28,0.0,5.0,97,0.35,,---,0.36,VWS V14.01,2013-06-08 11:00:00,
2013-06-08 07:05:00,62.4,61.5,29.85,North,5,0.0,6.0,97,0.35,,---,0.36,VWS V14.01,2013-06-08 11:05:00,
2013-06-08 07:10:00,62.3,61.7,29.85,North,9,0.0,6.0,98,0.36,,---,0.37,VWS V14.01,2013-06-08 11:10:00,
2013-06-08 07:15:00,62.3,61.7,29.85,North,9,0.0,2.0,98,0.36,,---,0.37,VWS V14.01,2013-06-08 11:15:00,
2013-06-08 07:20:00,62.2,61.6,29.85,North,5,0.0,4.0,98,0.37,,---,0.38,VWS V14.01,2013-06-08 11:20:00,
2013-06-08 07:25:00,62.2,61.6,29.85,North,5,0.0,1.0,98,0.38,,---,0.39,VWS V14.01,2013-06-08 11:25:00,
2013-06-08 07:30:00,62.2,61.6,29.85,North,5,0.0,2.0,98,0.38,,---,0.39,VWS V14.01,2013-06-08 11:30:00,
2013-06-08 07:35:00,61.8,60.9,29.85,WSW,254,0.0,5.0,97,0.39,,---,0.40,VWS V14.01,2013-06-08 11:35:00,
2013-06-08 07:40:00,61.4,60.5,29.85,ENE,63,0.0,0.0,97,0.27,,---,0.40,VWS V14.01,2013-06-08 11:40:00,
2013-06-08 07:45:00,61.2,60.3,29.86,NNE,26,0.0,2.0,97,0.28,,---,0.41,VWS V14.01,2013-06-08 11:45:00,
2013-06-08 07:50:00,61.1,60.2,29.86,NE,51,0.0,0.0,97,0.10,,---,0.41,VWS V14.01,2013-06-08 11:50:00,
2013-06-08 07:55:00,61.1,60.2,29.86,NE,46,0.0,2.0,97,0.11,,---,0.42,VWS V14.01,2013-06-08 11:55:00,
2013-06-08 08:00:00,61.4,60.8,29.86,WNW,298,0.0,1.0,98,0.06,,---,0.42,VWS V14.01,2013-06-08 12:00:00,
2013-06-08 08:05:00,61.5,60.6,29.86,WNW,298,0.0,1.0,97,0.06,,---,0.42,VWS V14.01,2013-06-08 12:05:00,
2013-06-08 08:10:00,61.6,61.0,29.86,WNW,298,0.0,0.0,98,0.05,,---,0.42,VWS V14.01,2013-06-08 12:10:00,
2013-06-08 08:16:00,61.9,61.3,29.86,WNW,298,0.0,0.0,98,0.05,,---,0.42,VWS V14.01,2013-06-08 12:16:00,
2013-06-08 08:21:00,62.1,61.5,29.86,WNW,298,0.0,0.0,98,0.04,,---,0.42,VWS V14.01,2013-06-08 12:21:00,
2013-06-08 08:26:00,62.3,61.7,29.86,WNW,298,0.0,0.0,98,0.04,,---,0.42,VWS V14.01,2013-06-08 12:26:00,
2013-06-08 08:31:00,62.6,62.0,29.86,WNW,298,0.0,0.0,98,0.03,,---,0.42,VWS V14.01,2013-06-08 12:31:00,
2013-06-08 08:36:00,62.9,62.3,29.86,WNW,298,0.0,1.0,98,0.03,,---,0.42,VWS V14.01,2013-06-08 12:36:00,
2013-06-08 08:41:00,63.0,62.4,29.86,NE,49,3.0,4.0,98,0.02,,---,0.42,VWS V14.01,2013-06-08 12:41:00,
2013-06-08 08:46:00,62.6,61.7,29.87,NE,48,0.0,4.0,97,0.02,,---,0.42,VWS V14.01,2013-06-08 12:46:00,
2013-06-08 08:51:00,63.0,62.1,29.87,NE,48,0.0,1.0,97,0.01,,---,0.42,VWS V14.01,2013-06-08 12:51:00,
2013-06-08 08:56:00,63.4,62.5,29.87,NE,48,0.0,1.0,97,0.01,,---,0.42,VWS V14.01,2013-06-08 12:56:00,
2013-06-08 09:02:00,63.3,62.1,29.88,NE,48,0.0,2.0,96,0.00,,---,0.42,VWS V14.01,2013-06-08 13:02:00,
2013-06-08 09:07:00,64.3,63.1,29.88,NE,48,0.0,2.0,96,0.00,,---,0.42,VWS V14.01,2013-06-08 13:07:00,
2013-06-08 09:12:00,65.0,63.2,29.88,NE,48,0.0,1.0,94,0.00,,---,0.42,VWS V14.01,2013-06-08 13:12:00,
2013-06-08 09:17:00,65.3,63.5,29.88,NE,48,0.0,1.0,94,0.00,,---,0.42,VWS V14.01,2013-06-08 13:17:00,
2013-06-08 09:22:00,65.3,63.2,29.88,NE,48,0.0,2.0,93,0.00,,---,0.42,VWS V14.01,2013-06-08 13:22:00,
2013-06-08 09:27:00,65.6,63.5,29.88,NE,48,1.0,2.0,93,0.00,,---,0.42,VWS V14.01,2013-06-08 13:27:00,
2013-06-08 09:32:00,65.7,63.0,29.88,NE,40,0.0,0.0,91,0.00,,---,0.42,VWS V14.01,2013-06-08 13:32:00,
2013-06-08 09:37:00,66.5,63.2,29.88,NE,40,0.0,3.0,89,0.00,,---,0.42,VWS V14.01,2013-06-08 13:37:00,
2013-06-08 09:42:00,67.3,64.6,29.88,NE,37,0.0,1.0,91,0.00,,---,0.42,VWS V14.01,2013-06-08 13:42:00,
2013-06-08 09:47:00,67.7,64.7,29.90,NE,34,0.0,2.0,90,0.00,,---,0.42,VWS V14.01,2013-06-08 13:47:00,
2013-06-08 09:52:00,67.4,64.4,29.90,NE,34,0.0,0.0,90,0.00,,---,0.42,VWS V14.01,2013-06-08 13:52:00,
2013-06-08 09:57:00,67.5,63.2,29.90,NE,34,1.0,2.0,86,0.00,,---,0.42,VWS V14.01,2013-06-08 13:57:00,
2013-06-08 10:02:00,68.5,65.1,29.90,WSW,254,0.0,4.0,89,0.00,,---,0.42,VWS V14.01,2013-06-08 14:02:00,
2013-06-08 10:07:00,68.8,64.1,29.90,WSW,254,0.0,4.0,85,0.00,,---,0.42,VWS V14.01,2013-06-08 14:07:00,
2013-06-08 10:13:00,69.1,63.7,29.90,WNW,291,0.0,3.0,83,0.00,,---,0.42,VWS V14.01,2013-06-08 14:13:00,
2013-06-08 10:18:00,69.7,64.7,29.91,WNW,292,0.0,3.0,84,0.00,,---,0.42,VWS V14.01,2013-06-08 14:18:00,
2013-06-08 10:23:00,70.2,64.1,29.91,SE,126,0.0,1.0,81,0.00,,---,0.42,VWS V14.01,2013-06-08 14:23:00,
2013-06-08 10:28:00,70.9,65.8,29.91,ENE,64,0.0,3.0,84,0.00,,---,0.42,VWS V14.01,2013-06-08 14:28:00,
2013-06-08 10:33:00,70.9,63.3,29.91,North,360,1.0,4.0,77,0.00,,---,0.42,VWS V14.01,2013-06-08 14:33:00,
2013-06-08 10:38:00,70.8,62.9,29.91,NW,323,0.0,4.0,76,0.00,,---,0.42,VWS V14.01,2013-06-08 14:38:00,
2013-06-08 10:43:00,71.4,64.2,29.91,NW,323,0.0,1.0,78,0.00,,---,0.42,VWS V14.01,2013-06-08 14:43:00,
2013-06-08 10:48:00,71.9,63.2,29.91,NW,323,0.0,1.0,74,0.00,,---,0.42,VWS V14.01,2013-06-08 14:48:00,
2013-06-08 10:53:00,72.1,64.9,29.91,East,94,0.0,3.0,78,0.00,,---,0.42,VWS V14.01,2013-06-08 14:53:00,
2013-06-08 10:58:00,72.3,64.3,29.91,East,93,0.0,3.0,76,0.00,,---,0.42,VWS V14.01,2013-06-08 14:58:00,
2013-06-08 11:03:00,72.1,61.0,29.92,East,94,0.0,1.0,68,0.00,,---,0.42,VWS V14.01,2013-06-08 15:03:00,
2013-06-08 11:08:00,72.2,62.7,29.92,East,93,0.0,1.0,72,0.00,,---,0.42,VWS V14.01,2013-06-08 15:08:00,
2013-06-08 11:13:00,73.0,64.2,29.92,East,93,0.0,2.0,74,0.00,,---,0.42,VWS V14.01,2013-06-08 15:13:00,
2013-06-08 11:18:00,73.3,63.3,29.93,East,96,0.0,2.0,71,0.00,,---,0.42,VWS V14.01,2013-06-08 15:18:00,
2013-06-08 11:23:00,74.1,64.5,29.93,East,96,0.0,1.0,72,0.00,,---,0.42,VWS V14.01,2013-06-08 15:23:00,
2013-06-08 11:28:00,74.2,63.4,29.93,NE,45,0.0,3.0,69,0.00,,---,0.42,VWS V14.01,2013-06-08 15:28:00,
2013-06-08 11:34:00,74.0,62.8,29.93,North,360,1.0,5.0,68,0.00,,---,0.42,VWS V14.01,2013-06-08 15:34:00,
2013-06-08 11:39:00,73.9,64.3,29.93,ESE,104,2.0,5.0,72,0.00,,---,0.42,VWS V14.01,2013-06-08 15:39:00,
2013-06-08 11:44:00,73.3,61.7,29.93,SSW,197,2.0,4.0,67,0.00,,---,0.42,VWS V14.01,2013-06-08 15:44:00,
2013-06-08 11:49:00,74.0,65.6,29.93,SSW,208,2.0,4.0,75,0.00,,---,0.42,VWS V14.01,2013-06-08 15:49:00,
2013-06-08 11:54:00,75.6,65.5,29.93,SW,220,1.0,2.0,71,0.00,,---,0.42,VWS V14.01,2013-06-08 15:54:00,
2013-06-08 11:59:00,75.4,64.1,29.93,South,183,2.0,4.0,68,0.00,,---,0.42,VWS V14.01,2013-06-08 15:59:00,
2013-06-08 12:04:00,74.5,62.4,29.93,South,177,0.0,5.0,66,0.00,,---,0.42,VWS V14.01,2013-06-08 16:04:00,
2013-06-08 12:09:00,74.6,63.8,29.93,SW,232,2.0,5.0,69,0.00,,---,0.42,VWS V14.01,2013-06-08 16:09:00,
2013-06-08 12:14:00,75.0,62.9,29.93,SSW,195,3.0,3.0,66,0.00,,---,0.42,VWS V14.01,2013-06-08 16:14:00,
2013-06-08 12:19:00,75.6,65.1,29.93,SSE,152,0.0,4.0,70,0.00,,---,0.42,VWS V14.01,2013-06-08 16:19:00,
2013-06-08 12:24:00,76.3,65.8,29.93,SSE,154,3.0,3.0,70,0.00,,---,0.42,VWS V14.01,2013-06-08 16:24:00,
2013-06-08 12:29:00,75.5,63.8,29.93,SW,216,3.0,7.0,67,0.00,,---,0.42,VWS V14.01,2013-06-08 16:29:00,
2013-06-08 12:34:00,76.1,63.9,29.93,SSW,207,1.0,4.0,66,0.00,,---,0.42,VWS V14.01,2013-06-08 16:34:00,
2013-06-08 12:39:00,76.1,65.6,29.93,SSW,196,1.0,4.0,70,0.00,,---,0.42,VWS V14.01,2013-06-08 16:39:00,
2013-06-08 12:45:00,76.7,63.6,29.93,SSW,204,0.0,5.0,64,0.00,,---,0.42,VWS V14.01,2013-06-08 16:45:00,
2013-06-08 12:50:00,76.5,63.9,29.93,South,191,3.0,5.0,65,0.00,,---,0.42,VWS V14.01,2013-06-08 16:50:00,
2013-06-08 12:55:00,76.4,62.9,29.93,SSW,195,0.0,4.0,63,0.00,,---,0.42,VWS V14.01,2013-06-08 16:55:00,
2013-06-08 13:00:00,77.2,63.2,29.92,SSW,196,0.0,4.0,62,0.00,,---,0.42,VWS V14.01,2013-06-08 17:00:00,
2013-06-08 13:05:00,76.7,63.6,29.92,SSW,196,0.0,3.0,64,0.00,,---,0.42,VWS V14.01,2013-06-08 17:05:00,
2013-06-08 13:10:00,77.1,64.0,29.92,SSW,202,6.0,6.0,64,0.00,,---,0.42,VWS V14.01,2013-06-08 17:10:00,
2013-06-08 13:15:00,77.5,64.8,29.92,South,181,3.0,6.0,65,0.00,,---,0.42,VWS V14.01,2013-06-08 17:15:00,
2013-06-08 13:20:00,77.7,65.4,29.92,WSW,241,1.0,1.0,66,0.00,,---,0.42,VWS V14.01,2013-06-08 17:20:00,
2013-06-08 13:25:00,78.3,64.2,29.92,ESE,123,3.0,3.0,62,0.00,,---,0.42,VWS V14.01,2013-06-08 17:25:00,
2013-06-08 13:30:00,77.9,62.9,29.92,SE,130,0.0,0.0,60,0.00,,---,0.42,VWS V14.01,2013-06-08 17:30:00,
2013-06-08 13:35:00,78.9,66.2,29.92,SSE,158,3.0,3.0,65,0.00,,---,0.42,VWS V14.01,2013-06-08 17:35:00,
2013-06-08 13:40:00,78.3,63.8,29.92,WSW,252,2.0,3.0,61,0.00,,---,0.42,VWS V14.01,2013-06-08 17:40:00,
2013-06-08 13:45:00,78.3,65.1,29.92,SW,236,0.0,4.0,64,0.00,,---,0.42,VWS V14.01,2013-06-08 17:45:00,
2013-06-08 13:51:00,79.7,66.5,29.92,WNW,300,1.0,1.0,64,0.00,,---,0.42,VWS V14.01,2013-06-08 17:51:00,
2013-06-08 13:56:00,80.2,65.5,29.92,West,263,2.0,6.0,61,0.00,,---,0.42,VWS V14.01,2013-06-08 17:56:00,
2013-06-08 14:01:00,80.3,66.6,29.92,SSW,209,2.0,4.0,63,0.00,,---,0.42,VWS V14.01,2013-06-08 18:01:00,
2013-06-08 14:06:00,80.1,64.0,29.92,SSW,193,5.0,7.0,58,0.00,,---,0.42,VWS V14.01,2013-06-08 18:06:00,
2013-06-08 14:11:00,79.1,64.0,29.92,SSW,192,1.0,3.0,60,0.00,,---,0.42,VWS V14.01,2013-06-08 18:11:00,
2013-06-08 14:16:00,80.0,63.4,29.92,SSW,192,0.0,3.0,57,0.00,,---,0.42,VWS V14.01,2013-06-08 18:16:00,
2013-06-08 14:21:00,81.2,63.0,29.92,SSW,211,0.0,6.0,54,0.00,,---,0.42,VWS V14.01,2013-06-08 18:21:00,
2013-06-08 14:26:00,80.0,62.9,29.92,SSW,202,0.0,6.0,56,0.00,,---,0.42,VWS V14.01,2013-06-08 18:26:00,
2013-06-08 14:31:00,80.0,62.4,29.92,SSW,202,0.0,1.0,55,0.00,,---,0.42,VWS V14.01,2013-06-08 18:31:00,
2013-06-08 14:36:00,79.3,64.2,29.92,South,188,0.0,3.0,60,0.00,,---,0.42,VWS V14.01,2013-06-08 18:36:00,
2013-06-08 14:42:00,79.5,64.9,29.92,SW,223,2.0,4.0,61,0.00,,---,0.42,VWS V14.01,2013-06-08 18:42:00,
2013-06-08 14:47:00,80.3,64.7,29.92,West,277,0.0,9.0,59,0.00,,---,0.42,VWS V14.01,2013-06-08 18:47:00,
2013-06-08 14:52:00,80.6,64.5,29.92,SW,224,0.0,4.0,58,0.00,,---,0.42,VWS V14.01,2013-06-08 18:52:00,
2013-06-08 14:57:00,81.5,68.6,29.92,WSW,250,2.0,5.0,65,0.00,,---,0.42,VWS V14.01,2013-06-08 18:57:00,
2013-06-08 15:02:00,81.1,65.9,29.91,SSW,208,0.0,1.0,60,0.00,,---,0.42,VWS V14.01,2013-06-08 19:02:00,
2013-06-08 15:07:00,80.8,65.6,29.91,SW,223,4.0,5.0,60,0.00,,---,0.42,VWS V14.01,2013-06-08 19:07:00,
2013-06-08 15:12:00,80.8,63.1,29.91,SSW,197,0.0,2.0,55,0.00,,---,0.42,VWS V14.01,2013-06-08 19:12:00,
2013-06-08 15:17:00,81.3,64.6,29.91,South,182,0.0,3.0,57,0.00,,---,0.42,VWS V14.01,2013-06-08 19:17:00,
2013-06-08 15:22:00,81.9,67.6,29.91,South,188,0.0,3.0,62,0.00,,---,0.42,VWS V14.01,2013-06-08 19:22:00,
2013-06-08 15:27:00,81.7,66.9,29.91,WSW,247,2.0,7.0,61,0.00,,---,0.42,VWS V14.01,2013-06-08 19:27:00,
2013-06-08 15:32:00,82.1,66.4,29.91,SW,225,5.0,7.0,59,0.00,,---,0.42,VWS V14.01,2013-06-08 19:32:00,
2013-06-08 15:38:00,81.2,65.0,29.91,SSW,208,3.0,7.0,58,0.00,,---,0.42,VWS V14.01,2013-06-08 19:38:00,
2013-06-08 15:43:00,80.4,64.8,29.91,SSW,197,0.0,7.0,59,0.00,,---,0.42,VWS V14.01,2013-06-08 19:43:00,
2013-06-08 15:48:00,81.0,66.8,29.91,SW,218,1.0,7.0,62,0.00,,---,0.42,VWS V14.01,2013-06-08 19:48:00,
2013-06-08 15:53:00,79.8,65.6,29.91,SSW,210,1.0,5.0,62,0.00,,---,0.42,VWS V14.01,2013-06-08 19:53:00,
2013-06-08 15:58:00,79.1,65.0,29.91,SSW,210,2.0,5.0,62,0.00,,---,0.42,VWS V14.01,2013-06-08 19:58:00,
2013-06-08 16:03:00,79.6,65.9,29.91,SSW,211,3.0,3.0,63,0.00,,---,0.42,VWS V14.01,2013-06-08 20:03:00,
2013-06-08 16:08:00,80.5,65.8,29.91,WSW,253,3.0,6.0,61,0.00,,---,0.42,VWS V14.01,2013-06-08 20:08:00,
2013-06-08 16:13:00,81.1,65.9,29.91,SW,219,3.0,3.0,60,0.00,,---,0.42,VWS V14.01,2013-06-08 20:13:00,
2013-06-08 16:18:00,80.2,65.5,29.91,South,186,0.0,4.0,61,0.00,,---,0.42,VWS V14.01,2013-06-08 20:18:00,
2013-06-08 16:23:00,80.1,65.9,29.91,SSW,208,0.0,6.0,62,0.00,,---,0.42,VWS V14.01,2013-06-08 20:23:00,
2013-06-08 16:28:00,80.7,67.8,29.91,SSW,204,1.0,6.0,65,0.00,,---,0.42,VWS V14.01,2013-06-08 20:28:00,
2013-06-08 16:33:00,81.1,67.3,29.91,SW,219,2.0,6.0,63,0.00,,---,0.42,VWS V14.01,2013-06-08 20:33:00,
2013-06-08 16:39:00,81.6,67.8,29.91,SW,219,1.0,6.0,63,0.00,,---,0.42,VWS V14.01,2013-06-08 20:39:00,
2013-06-08 16:44:00,82.0,66.8,29.91,SW,219,0.0,3.0,60,0.00,,---,0.42,VWS V14.01,2013-06-08 20:44:00,
2013-06-08 16:49:00,82.0,65.3,29.91,SW,215,5.0,6.0,57,0.00,,---,0.42,VWS V14.01,2013-06-08 20:49:00,
2013-06-08 16:54:00,81.0,64.8,29.91,SW,227,2.0,5.0,58,0.00,,---,0.42,VWS V14.01,2013-06-08 20:54:00,
2013-06-08 16:59:00,81.2,66.0,29.91,SW,230,3.0,7.0,60,0.00,,---,0.42,VWS V14.01,2013-06-08 20:59:00,
2013-06-08 17:04:00,80.9,66.2,29.91,SW,233,0.0,4.0,61,0.00,,---,0.42,VWS V14.01,2013-06-08 21:04:00,
2013-06-08 17:09:00,81.3,66.1,29.91,SW,233,0.0,4.0,60,0.00,,---,0.42,VWS V14.01,2013-06-08 21:09:00,
2013-06-08 17:14:00,81.5,66.8,29.92,SSE,151,1.0,3.0,61,0.00,,---,0.42,VWS V14.01,2013-06-08 21:14:00,
2013-06-08 17:19:00,81.3,67.1,29.92,WSW,238,2.0,5.0,62,0.00,,---,0.42,VWS V14.01,2013-06-08 21:19:00,
2013-06-08 17:24:00,81.2,66.9,29.92,SW,235,1.0,4.0,62,0.00,,---,0.42,VWS V14.01,2013-06-08 21:24:00,
2013-06-08 17:29:00,81.1,65.4,29.92,SW,235,0.0,4.0,59,0.00,,---,0.42,VWS V14.01,2013-06-08 21:29:00,
2013-06-08 17:34:00,81.0,66.8,29.92,SSW,194,1.0,4.0,62,0.00,,---,0.42,VWS V14.01,2013-06-08 21:34:00,
2013-06-08 17:39:00,80.2,65.5,29.92,South,191,2.0,4.0,61,0.00,,---,0.42,VWS V14.01,2013-06-08 21:39:00,
2013-06-08 17:45:00,80.2,65.5,29.92,South,175,2.0,4.0,61,0.00,,---,0.42,VWS V14.01,2013-06-08 21:45:00,
2013-06-08 17:50:00,80.2,66.9,29.92,South,176,0.0,4.0,64,0.00,,---,0.42,VWS V14.01,2013-06-08 21:50:00,
2013-06-08 17:55:00,80.4,66.7,29.92,South,186,2.0,4.0,63,0.00,,---,0.42,VWS V14.01,2013-06-08 21:55:00,
2013-06-08 18:00:00,80.5,66.3,29.93,South,187,2.0,4.0,62,0.00,,---,0.42,VWS V14.01,2013-06-08 22:00:00,
2013-06-08 18:05:00,80.7,67.8,29.93,South,187,1.0,3.0,65,0.00,,---,0.42,VWS V14.01,2013-06-08 22:05:00,
2013-06-08 18:10:00,80.6,66.4,29.93,South,178,2.0,4.0,62,0.00,,---,0.42,VWS V14.01,2013-06-08 22:10:00,
2013-06-08 18:15:00,80.8,67.0,29.93,South,182,3.0,4.0,63,0.00,,---,0.42,VWS V14.01,2013-06-08 22:15:00,
2013-06-08 18:20:00,80.8,67.9,29.93,SSW,207,0.0,0.0,65,0.00,,---,0.42,VWS V14.01,2013-06-08 22:20:00,
2013-06-08 18:25:00,80.8,67.0,29.93,SSW,207,1.0,4.0,63,0.00,,---,0.42,VWS V14.01,2013-06-08 22:25:00,
2013-06-08 18:30:00,80.4,67.1,29.93,SSW,204,1.0,1.0,64,0.00,,---,0.42,VWS V14.01,2013-06-08 22:30:00,
2013-06-08 18:35:00,80.0,67.6,29.93,SSW,202,3.0,3.0,66,0.00,,---,0.42,VWS V14.01,2013-06-08 22:35:00,
2013-06-08 18:40:00,79.4,66.2,29.93,SSW,195,0.0,3.0,64,0.00,,---,0.42,VWS V14.01,2013-06-08 22:40:00,
2013-06-08 18:46:00,79.2,66.4,29.94,SSW,200,0.0,5.0,65,0.00,,---,0.42,VWS V14.01,2013-06-08 22:46:00,
2013-06-08 18:51:00,79.1,67.2,29.94,SSW,200,1.0,2.0,67,0.00,,---,0.42,VWS V14.01,2013-06-08 22:51:00,
2013-06-08 18:56:00,79.1,67.6,29.94,SSW,200,0.0,3.0,68,0.00,,---,0.42,VWS V14.01,2013-06-08 22:56:00,
2013-06-08 19:01:00,79.1,67.2,29.94,SSW,200,1.0,3.0,67,0.00,,---,0.42,VWS V14.01,2013-06-08 23:01:00,
2013-06-08 19:06:00,79.0,66.7,29.94,SSW,197,4.0,4.0,66,0.00,,---,0.42,VWS V14.01,2013-06-08 23:06:00,
2013-06-08 19:11:00,78.8,66.9,29.94,South,190,0.0,0.0,67,0.00,,---,0.42,VWS V14.01,2013-06-08 23:11:00,
2013-06-08 19:16:00,78.6,66.7,29.94,SSW,196,1.0,5.0,67,0.00,,---,0.42,VWS V14.01,2013-06-08 23:16:00,
2013-06-08 19:21:00,78.3,66.9,29.94,SSW,196,0.0,3.0,68,0.00,,---,0.42,VWS V14.01,2013-06-08 23:21:00,
2013-06-08 19:26:00,78.2,67.2,29.94,SSE,165,0.0,3.0,69,0.00,,---,0.42,VWS V14.01,2013-06-08 23:26:00,
2013-06-08 19:31:00,77.8,67.2,29.94,SSE,165,0.0,0.0,70,0.00,,---,0.42,VWS V14.01,2013-06-08 23:31:00,
2013-06-08 19:36:00,77.7,68.0,29.94,SSE,164,0.0,2.0,72,0.00,,---,0.42,VWS V14.01,2013-06-08 23:36:00,
2013-06-08 19:41:00,77.1,67.4,29.94,SSE,164,0.0,0.0,72,0.00,,---,0.42,VWS V14.01,2013-06-08 23:41:00,
2013-06-08 19:46:00,76.9,67.6,29.95,SSE,165,0.0,1.0,73,0.00,,---,0.42,VWS V14.01,2013-06-08 23:46:00,
2013-06-08 19:52:00,76.9,67.2,29.95,SSE,164,0.0,0.0,72,0.00,,---,0.42,VWS V14.01,2013-06-08 23:52:00,
2013-06-08 19:57:00,76.5,68.0,29.95,SSE,164,0.0,1.0,75,0.00,,---,0.42,VWS V14.01,2013-06-08 23:57:00,
2013-06-08 20:02:00,76.1,68.8,29.95,SSE,164,0.0,0.0,78,0.00,,---,0.42,VWS V14.01,2013-06-09 00:02:00,
2013-06-08 20:07:00,75.3,68.3,29.95,SSE,164,0.0,0.0,79,0.00,,---,0.42,VWS V14.01,2013-06-09 00:07:00,
2013-06-08 20:12:00,74.8,68.6,29.95,SSE,164,0.0,0.0,81,0.00,,---,0.42,VWS V14.01,2013-06-09 00:12:00,
2013-06-08 20:17:00,74.2,68.4,29.96,SSE,164,0.0,0.0,82,0.00,,---,0.42,VWS V14.01,2013-06-09 00:17:00,
2013-06-08 20:22:00,73.9,68.4,29.96,SSE,164,0.0,0.0,83,0.00,,---,0.42,VWS V14.01,2013-06-09 00:22:00,
2013-06-08 20:27:00,73.5,68.0,29.96,SSE,164,0.0,0.0,83,0.00,,---,0.42,VWS V14.01,2013-06-09 00:27:00,
2013-06-08 20:32:00,72.9,67.8,29.97,SSE,164,0.0,0.0,84,0.00,,---,0.42,VWS V14.01,2013-06-09 00:32:00,
2013-06-08 20:37:00,72.5,67.7,29.97,SSE,164,0.0,0.0,85,0.00,,---,0.42,VWS V14.01,2013-06-09 00:37:00,
2013-06-08 20:42:00,72.3,67.5,29.97,SSE,164,0.0,0.0,85,0.00,,---,0.42,VWS V14.01,2013-06-09 00:42:00,
2013-06-08 20:47:00,72.1,67.7,29.97,SSE,164,0.0,0.0,86,0.00,,---,0.42,VWS V14.01,2013-06-09 00:47:00,
2013-06-08 20:52:00,71.8,68.1,29.97,SSE,164,0.0,0.0,88,0.00,,---,0.42,VWS V14.01,2013-06-09 00:52:00,
2013-06-08 20:57:00,71.7,68.0,29.97,SSE,164,0.0,0.0,88,0.00,,---,0.42,VWS V14.01,2013-06-09 00:57:00,
2013-06-08 21:03:00,71.4,67.7,29.98,SSE,164,0.0,0.0,88,0.00,,---,0.42,VWS V14.01,2013-06-09 01:03:00,
2013-06-08 21:08:00,71.2,67.5,29.98,SSE,164,0.0,0.0,88,0.00,,---,0.42,VWS V14.01,2013-06-09 01:08:00,
2013-06-08 21:13:00,71.1,67.7,29.98,SSE,164,0.0,0.0,89,0.00,,---,0.42,VWS V14.01,2013-06-09 01:13:00,
2013-06-08 21:18:00,70.9,67.5,29.98,SSE,164,0.0,0.0,89,0.00,,---,0.42,VWS V14.01,2013-06-09 01:18:00,
2013-06-08 21:23:00,70.7,67.6,29.98,SSE,164,0.0,0.0,90,0.00,,---,0.42,VWS V14.01,2013-06-09 01:23:00,
2013-06-08 21:28:00,70.6,67.5,29.98,SSE,164,0.0,0.0,90,0.00,,---,0.42,VWS V14.01,2013-06-09 01:28:00,
2013-06-08 21:33:00,70.5,67.4,29.99,SSE,164,0.0,0.0,90,0.00,,---,0.42,VWS V14.01,2013-06-09 01:33:00,
2013-06-08 21:38:00,70.5,67.4,29.99,SSE,164,0.0,0.0,90,0.00,,---,0.42,VWS V14.01,2013-06-09 01:38:00,
2013-06-08 21:43:00,70.6,67.5,29.99,SSE,164,0.0,0.0,90,0.00,,---,0.42,VWS V14.01,2013-06-09 01:43:00,
2013-06-08 21:48:00,70.8,68.1,30.00,SSE,164,0.0,0.0,91,0.00,,---,0.42,VWS V14.01,2013-06-09 01:48:00,
2013-06-08 21:53:00,70.9,67.8,30.00,SSE,164,0.0,0.0,90,0.00,,---,0.42,VWS V14.01,2013-06-09 01:53:00,
2013-06-08 21:58:00,71.0,67.9,30.00,SSE,164,0.0,0.0,90,0.00,,---,0.42,VWS V14.01,2013-06-09 01:58:00,
2013-06-08 22:04:00,71.0,67.9,30.00,SSE,164,0.0,0.0,90,0.00,,---,0.42,VWS V14.01,2013-06-09 02:04:00,
2013-06-08 22:09:00,71.0,67.9,30.00,SSE,164,0.0,0.0,90,0.00,,---,0.42,VWS V14.01,2013-06-09 02:09:00,
2013-06-08 22:14:00,71.0,67.6,30.00,SSE,164,1.0,1.0,89,0.00,,---,0.42,VWS V14.01,2013-06-09 02:14:00,
2013-06-08 22:19:00,71.0,67.6,30.00,SSE,164,0.0,1.0,89,0.00,,---,0.42,VWS V14.01,2013-06-09 02:19:00,
2013-06-08 22:24:00,70.9,67.5,30.00,SSE,164,0.0,0.0,89,0.00,,---,0.42,VWS V14.01,2013-06-09 02:24:00,
2013-06-08 22:29:00,70.9,67.8,30.00,SSE,164,0.0,0.0,90,0.00,,---,0.42,VWS V14.01,2013-06-09 02:29:00,
2013-06-08 22:34:00,70.7,67.3,30.01,SSE,164,0.0,0.0,89,0.00,,---,0.42,VWS V14.01,2013-06-09 02:34:00,
2013-06-08 22:39:00,70.6,67.2,30.01,SSE,164,0.0,0.0,89,0.00,,---,0.42,VWS V14.01,2013-06-09 02:39:00,
2013-06-08 22:44:00,70.4,67.3,30.01,SSE,164,0.0,0.0,90,0.00,,---,0.42,VWS V14.01,2013-06-09 02:44:00,
2013-06-08 22:49:00,70.2,67.1,30.01,SSE,164,0.0,0.0,90,0.00,,---,0.42,VWS V14.01,2013-06-09 02:49:00,
2013-06-08 22:55:00,70.1,67.4,30.01,SSE,164,0.0,0.0,91,0.00,,---,0.42,VWS V14.01,2013-06-09 02:55:00,
2013-06-08 23:00:00,69.9,67.2,30.02,SSE,164,0.0,0.0,91,0.00,,---,0.42,VWS V14.01,2013-06-09 03:00:00,
2013-06-08 23:05:00,69.8,67.1,30.02,SSE,164,0.0,0.0,91,0.00,,---,0.42,VWS V14.01,2013-06-09 03:05:00,
2013-06-08 23:10:00,69.7,67.0,30.02,SSE,164,0.0,0.0,91,0.00,,---,0.42,VWS V14.01,2013-06-09 03:10:00,
2013-06-08 23:15:00,69.6,67.2,30.02,SSE,164,0.0,0.0,92,0.00,,---,0.42,VWS V14.01,2013-06-09 03:15:00,
2013-06-08 23:20:00,69.5,67.1,30.02,SSE,164,0.0,0.0,92,0.00,,---,0.42,VWS V14.01,2013-06-09 03:20:00,
2013-06-08 23:25:00,69.4,67.0,30.02,SSE,164,0.0,0.0,92,0.00,,---,0.42,VWS V14.01,2013-06-09 03:25:00,
2013-06-08 23:30:00,69.4,67.0,30.02,SSE,164,0.0,0.0,92,0.00,,---,0.42,VWS V14.01,2013-06-09 03:30:00,
2013-06-08 23:35:00,69.3,66.9,30.02,SSE,164,0.0,0.0,92,0.00,,---,0.42,VWS V14.01,2013-06-09 03:35:00,
2013-06-08 23:40:00,69.4,67.3,30.02,SSE,164,0.0,0.0,93,0.00,,---,0.42,VWS V14.01,2013-06-09 03:40:00,
2013-06-08 23:45:00,69.6,67.2,30.02,WSW,245,2.0,2.0,92,0.00,,---,0.42,VWS V14.01,2013-06-09 03:45:00,
2013-06-08 23:51:00,69.8,67.1,30.02,SW,232,1.0,1.0,91,0.00,,---,0.42,VWS V14.01,2013-06-09 03:51:00,
2013-06-08 23:56:00,70.1,67.4,30.02,SW,232,0.0,2.0,91,0.00,,---,0.42,VWS V14.01,2013-06-09 03:56:00,